Orbital Elements at Epoch 2459000.5 (2020-May-31.0) TDB
Reference: JPL 17 (heliocentric ecliptic J2000)
Element | Value | Uncertainty (1-sigma) | Units |
e | .07885790336506235 | 4.705e-08 | |
a | 3.146734341479152 | 3.4875e-08 | au |
q | 2.898589468863265 | 1.6389e-07 | au |
i | 12.09500861437847 | 6.0235e-06 | deg |
node | 215.1074032348732 | 2.0783e-05 | deg |
peri | 113.0585752349036 | 4.3657e-05 | deg |
M | 257.7215029481853 | 3.9406e-05 | deg |
tp | 2459579.755789789446 (2021-Dec-31.25578979) | 0.00022673 | TDB |
period | 2038.865356210283 5.58 | 3.3895e-05 9.28e-08 | d yr |
n | .176568795434901 | 2.9353e-09 | deg/d |
Q | 3.394879214095037 | 3.7625e-08 | au |
|
| | Orbit Determination Parameters
Additional Information
|